Voltar ao catálogo

STARLINK-35059

AtivoComunicaçõesSSO
NORAD 65454·PAYLOAD·🇺🇸 United States

Lançado Sep 3, 2025 de Vandenberg Space Force Base

Loading…

Próximas Passagens (próximas 24 horas)

TLE

AtualizadoSource: CelesTrak SupGP

Época: Sep 14, 2026, 20:41 UTC

1 65454C 25194W   26257.86229167  .01035000  00000+0  61914-1 0  2575
2 65454  97.2852 107.7201 0001755  89.5926 233.7390 15.10612777    19

Acompanhe STARLINK-35059 em tempo real com AllMySat

Download on the App Store